Princeton, MN

4:07 AM CST on November 22, 2019 (GMT -0600)
Princeton Municipal

Weather History for KPNM - June, 2019

Change the Weather History Date:

Tuesday, June 11, 2019

  Actual Average Record
Temperature  
Mean Temperature 58 °F -  
Max Temperature 68 °F 72 °F 89 °F (2016)
Min Temperature 48 °F 50 °F 42 °F (2000)
Degree Days  
Heating Degree Days 7    
Growing Degree Days 8 (Base 50)    
Moisture  
Dew Point 52 °F    
Average Humidity 76    
Maximum Humidity 100    
Minimum Humidity 59    
Precipitation  
Precipitation 0.00 in - - ()
Sea Level Pressure  
Sea Level Pressure 30.06 in    
Wind  
Wind Speed 4 mph (South)    
Max Wind Speed 20 mph    
Max Gust Speed 26 mph    
Visibility 9 miles    
Events Rain , Thunderstorm    
Averages and records for this station are not official NWS values.
T = Trace of Precipitation, MM = Missing Value Source: NWS Daily Summary

Daily Weather History Graph

Daily Weather History Graph

Search for Another Location

Airport or City:

Astronomy

Jun. 11, 2019 Rise Set
Actual Time 5:25 AM CDT 9:03 PM CDT
Civil Twilight 4:47 AM CDT 9:41 PM CDT
Nautical Twilight 3:57 AM CDT 10:31 PM CDT
Astronomical Twilight 2:49 AM CDT 11:39 PM CDT
Moon 2:43 PM CDT (6/11) 2:31 AM CDT (6/11)
Length of Visible Light 16h 53m
Length of Day
15h 37m
Waxing Gibbous, 66% of the Moon is Illuminated
Jun 11
Waxing Gibbous
Jun 17
Full
Jun 25
Last Quarter
Jul 2
New
Jul 9
First Quarter

Hourly Weather History & Observations

Time (CDT) Temp. Dew Point Humidity Pressure Visibility Wind Dir Wind Speed Gust Speed Precip Events Conditions
12:15 AM 48.2 °F 48.2 °F 100% 30.12 in 4.0 mi Calm Calm - N/A   Clear
12:16 AM 48.2 °F 48.2 °F 100% 30.11 in 4.0 mi Calm Calm - N/A   Clear
12:35 AM 51.8 °F 50.0 °F 94% 30.12 in 10.0 mi Calm Calm - N/A   Mostly Cloudy
12:59 AM 50.0 °F 48.2 °F 94% 30.12 in 10.0 mi Calm Calm - N/A   Mostly Cloudy
1:17 AM 51.8 °F 48.2 °F 88% 30.12 in 10.0 mi Calm Calm - N/A   Scattered Clouds
1:35 AM 50.0 °F 48.2 °F 94% 30.12 in 10.0 mi Calm Calm - N/A   Scattered Clouds
1:36 AM 50.0 °F 48.2 °F 94% 30.12 in 10.0 mi Calm Calm - N/A   Scattered Clouds
1:55 AM 51.8 °F 50.0 °F 94% 30.12 in 10.0 mi Calm Calm - N/A   Clear
2:15 AM 50.0 °F 48.2 °F 94% 30.11 in 10.0 mi Calm Calm - N/A   Clear
2:39 AM 51.8 °F 48.2 °F 88% 30.10 in 10.0 mi NNE 4.6 mph - N/A   Clear
2:57 AM 51.8 °F 48.2 °F 88% 30.10 in 10.0 mi Calm Calm - N/A   Clear
3:15 AM 51.8 °F 48.2 °F 88% 30.10 in 10.0 mi Calm Calm - N/A   Clear
3:16 AM 51.8 °F 48.2 °F 88% 30.10 in 10.0 mi Calm Calm - N/A   Clear
3:35 AM 51.8 °F 48.2 °F 88% 30.10 in 10.0 mi Calm Calm - N/A   Scattered Clouds
3:36 AM 51.8 °F 48.2 °F 88% 30.10 in 10.0 mi Calm Calm - N/A   Scattered Clouds
3:55 AM 53.6 °F 48.2 °F 82% 30.10 in 10.0 mi Calm Calm - N/A   Mostly Cloudy
4:18 AM 57.2 °F 48.2 °F 72% 30.10 in 10.0 mi Calm Calm - N/A   Mostly Cloudy
4:36 AM 57.2 °F 46.4 °F 67% 30.10 in 10.0 mi Calm Calm - N/A   Mostly Cloudy
4:55 AM 57.2 °F 48.2 °F 72% 30.10 in 10.0 mi East 3.5 mph - N/A   Mostly Cloudy
5:15 AM 57.2 °F 46.4 °F 67% 30.10 in 10.0 mi Calm Calm - N/A   Mostly Cloudy
5:16 AM 57.2 °F 46.4 °F 67% 30.10 in 10.0 mi Calm Calm - N/A   Mostly Cloudy
5:39 AM 57.2 °F 46.4 °F 67% 30.10 in 10.0 mi Calm Calm - N/A   Mostly Cloudy
6:16 AM 55.4 °F 48.2 °F 77% 30.11 in 10.0 mi SSE 3.5 mph - N/A   Scattered Clouds
6:35 AM 57.2 °F 48.2 °F 72% 30.10 in 10.0 mi East 3.5 mph - N/A   Mostly Cloudy
6:36 AM 57.2 °F 48.2 °F 72% 30.10 in 10.0 mi ESE 3.5 mph - N/A   Mostly Cloudy
6:55 AM 57.2 °F 48.2 °F 72% 30.11 in 10.0 mi SE 3.5 mph - N/A   Mostly Cloudy
6:56 AM 57.2 °F 48.2 °F 72% 30.10 in 10.0 mi SE 3.5 mph - N/A   Mostly Cloudy
7:19 AM 57.2 °F 48.2 °F 72% 30.11 in 10.0 mi Calm Calm - N/A   Scattered Clouds
7:37 AM 59.0 °F 50.0 °F 72% 30.11 in 10.0 mi Calm Calm - N/A   Scattered Clouds
7:55 AM 60.8 °F 50.0 °F 68% 30.11 in 10.0 mi Calm Calm - N/A Rain Light Rain
8:15 AM 60.8 °F 51.8 °F 72% 30.11 in 10.0 mi Calm Calm - N/A   Mostly Cloudy
8:16 AM 60.8 °F 51.8 °F 72% 30.11 in 10.0 mi Calm Calm - N/A   Mostly Cloudy
8:35 AM 62.6 °F 51.8 °F 68% 30.11 in 10.0 mi SW 3.5 mph - N/A   Scattered Clouds
8:40 AM 62.6 °F 51.8 °F 68% 30.11 in 10.0 mi Calm Calm - N/A   Scattered Clouds
8:58 AM 62.6 °F 53.6 °F 72% 30.11 in 10.0 mi SW 3.5 mph - N/A Rain Light Rain
9:16 AM 64.4 °F 51.8 °F 64% 30.11 in 10.0 mi SW 8.1 mph - N/A   Scattered Clouds
9:35 AM 64.4 °F 51.8 °F 64% 30.11 in 10.0 mi SW 8.1 mph - N/A   Clear
9:55 AM 66.2 °F 51.8 °F 60% 30.11 in 10.0 mi SW 8.1 mph - N/A   Clear
9:56 AM 66.2 °F 51.8 °F 60% 30.11 in 10.0 mi SW 8.1 mph - N/A   Clear
10:19 AM 64.4 °F 50.0 °F 59% 30.11 in 10.0 mi SW 9.2 mph 16.1 mph N/A   Clear
10:37 AM 64.4 °F 50.0 °F 59% 30.11 in 10.0 mi SSW 9.2 mph 18.4 mph N/A   Clear
10:55 AM 64.4 °F 51.8 °F 64% 30.11 in 10.0 mi SSW 12.7 mph 17.3 mph N/A   Light Drizzle
11:15 AM 62.6 °F 51.8 °F 68% 30.11 in 10.0 mi South 11.5 mph 18.4 mph N/A   Light Drizzle
11:16 AM 62.6 °F 51.8 °F 68% 30.11 in 10.0 mi South 12.7 mph 18.4 mph N/A   Light Drizzle
11:35 AM 62.6 °F 53.6 °F 72% 30.10 in 10.0 mi South 12.7 mph 18.4 mph N/A Rain Light Rain
11:40 AM 62.6 °F 53.6 °F 72% 30.10 in 10.0 mi South 8.1 mph - N/A Rain Light Rain
11:58 AM 64.4 °F 53.6 °F 68% 30.09 in 10.0 mi South 13.8 mph 18.4 mph N/A   Scattered Clouds
12:16 PM 66.2 °F 51.8 °F 60% 30.09 in 10.0 mi South 13.8 mph 23.0 mph N/A   Scattered Clouds
12:35 PM 64.4 °F 51.8 °F 64% 30.08 in 10.0 mi South 12.7 mph 21.9 mph N/A   Scattered Clouds
12:55 PM 64.4 °F 50.0 °F 59% 30.08 in 10.0 mi South 12.7 mph - N/A   Scattered Clouds
1:19 PM 66.2 °F 51.8 °F 60% 30.07 in 10.0 mi South 16.1 mph 24.2 mph N/A   Clear
1:37 PM 64.4 °F 53.6 °F 68% 30.07 in 10.0 mi SSE 10.4 mph 19.6 mph N/A   Scattered Clouds
1:56 PM 64.4 °F 53.6 °F 68% 30.06 in 10.0 mi SSE 13.8 mph 18.4 mph N/A   Scattered Clouds
2:15 PM 64.4 °F 53.6 °F 68% 30.06 in 10.0 mi SSE 15.0 mph 19.6 mph N/A   Scattered Clouds
2:35 PM 64.4 °F 53.6 °F 68% 30.05 in 10.0 mi SSE 9.2 mph - N/A   Scattered Clouds
2:58 PM 64.4 °F 53.6 °F 68% 30.04 in 10.0 mi SSE 11.5 mph - N/A   Scattered Clouds
3:16 PM 64.4 °F 53.6 °F 68% 30.04 in 10.0 mi SSE 10.4 mph 16.1 mph N/A   Mostly Cloudy
3:35 PM 64.4 °F 55.4 °F 73% 30.02 in 10.0 mi SE 11.5 mph - N/A   Mostly Cloudy
3:36 PM 64.4 °F 55.4 °F 73% 30.02 in 10.0 mi SSE 10.4 mph - N/A   Overcast
3:55 PM 64.4 °F 55.4 °F 73% 30.02 in 10.0 mi SE 9.2 mph - N/A   Overcast
3:56 PM 64.4 °F 55.4 °F 73% 30.02 in 10.0 mi SE 9.2 mph - N/A   Overcast
4:19 PM 64.4 °F 55.4 °F 73% 30.01 in 10.0 mi SSE 6.9 mph - N/A   Mostly Cloudy
4:36 PM 68.0 °F 55.4 °F 64% 29.99 in 10.0 mi SSE 6.9 mph - N/A   Mostly Cloudy
4:55 PM 66.2 °F 55.4 °F 68% 29.99 in 10.0 mi SSE 8.1 mph - N/A   Scattered Clouds
5:15 PM 66.2 °F 55.4 °F 68% 29.99 in 10.0 mi South 5.8 mph - N/A   Scattered Clouds
5:16 PM 64.4 °F 55.4 °F 73% 29.99 in 10.0 mi South 5.8 mph - N/A   Scattered Clouds
5:35 PM 66.2 °F 55.4 °F 68% 29.99 in 10.0 mi SSE 6.9 mph - N/A   Scattered Clouds
5:40 PM 66.2 °F 55.4 °F 68% 29.98 in 10.0 mi SSE 5.8 mph - N/A   Scattered Clouds
5:58 PM 66.2 °F 55.4 °F 68% 29.98 in 10.0 mi SSE 8.1 mph - N/A   Scattered Clouds
6:16 PM 68.0 °F 55.4 °F 64% 29.98 in 10.0 mi SSE 8.1 mph - N/A   Mostly Cloudy
6:35 PM 66.2 °F 55.4 °F 68% 29.97 in 10.0 mi South 3.5 mph - N/A   Scattered Clouds
6:36 PM 66.2 °F 55.4 °F 68% 29.97 in 10.0 mi South 3.5 mph - N/A   Scattered Clouds
6:55 PM 66.2 °F 55.4 °F 68% 29.98 in 10.0 mi SSE 9.2 mph - N/A   Clear
7:19 PM 66.2 °F 53.6 °F 64% 29.97 in 10.0 mi SSE 8.1 mph - N/A   Mostly Cloudy
7:37 PM 66.2 °F 51.8 °F 60% 29.98 in 10.0 mi South 8.1 mph - N/A   Mostly Cloudy
7:55 PM 64.4 °F 51.8 °F 64% 29.98 in 10.0 mi South 6.9 mph - N/A   Scattered Clouds
8:15 PM 64.4 °F 51.8 °F 64% 30.02 in 10.0 mi NW 19.6 mph 26.5 mph N/A   Scattered Clouds
8:35 PM 59.0 °F 48.2 °F 67% 30.01 in 10.0 mi North 17.3 mph 24.2 mph N/A Rain , Thunderstorm Light Thunderstorms and Rain
8:40 PM 57.2 °F 51.8 °F 82% 30.02 in 10.0 mi North 16.1 mph 23.0 mph N/A Rain , Thunderstorm Light Thunderstorms and Rain
8:58 PM 55.4 °F 51.8 °F 88% 30.03 in 5.0 mi North 11.5 mph 17.3 mph N/A Rain Heavy Rain
9:16 PM 55.4 °F 51.8 °F 88% 30.02 in 5.0 mi NNW 6.9 mph - N/A Rain Rain
9:35 PM 55.4 °F 51.8 °F 88% 30.02 in 7.0 mi North 4.6 mph - N/A Rain Heavy Rain
9:55 PM 55.4 °F 53.6 °F 94% 30.02 in 5.0 mi Calm Calm - N/A Rain Rain
9:56 PM 55.4 °F 53.6 °F 94% 30.02 in 5.0 mi Calm Calm - N/A Rain Rain
10:19 PM 55.4 °F 53.6 °F 94% 30.00 in 3.0 mi Calm Calm - N/A Rain Rain
10:37 PM 53.6 °F 53.6 °F 100% 29.99 in 4.0 mi Calm Calm - N/A Rain Rain
10:55 PM 53.6 °F 53.6 °F 100% 29.98 in 7.0 mi Calm Calm - N/A Rain Rain
11:15 PM 55.4 °F 53.6 °F 94% 29.98 in 10.0 mi NNW 5.8 mph - N/A Rain Light Rain
11:35 PM 53.6 °F 53.6 °F 100% 29.98 in 10.0 mi Calm Calm - N/A   Scattered Clouds
11:40 PM 53.6 °F 53.6 °F 100% 29.98 in 10.0 mi Calm Calm - N/A   Scattered Clouds
11:58 PM 53.6 °F 53.6 °F 100% 29.98 in 10.0 mi Calm Calm - N/A   Mostly Cloudy